This is the latest recevied weather packets stored in our database for station/object W4MSI. If no packets are shown the sender has not sent any weather packets the latest 10 day(s).
| Time | Temp. | Humidity | Pressure | Rain* | Wind** | Luminosity | Snow |
|---|---|---|---|---|---|---|---|
| 1778079284 | 11.11° C | 90% | 1012.7 hPa | 0 mm | - | 441 W/m² | - |
| 1778078982 | 10.56° C | 95% | 1012.6 hPa | 0 mm | - | 328 W/m² | - |
| 1778078678 | 10.56° C | 97% | 1012.6 hPa | 0 mm | - | 317 W/m² | - |
| 1778078377 | 10.56° C | 98% | 1012.5 hPa | 0 mm | - | 268 W/m² | - |
| 1778078073 | 10° C | 98% | 1012.5 hPa | 0 mm | - | 257 W/m² | - |
| 1778077772 | 10° C | 98% | 1012.5 hPa | 0 mm | - | 206 W/m² | - |
| 1778077469 | 10° C | 98% | 1012.4 hPa | 0 mm | - | 63 W/m² | - |
| 1778077167 | 10° C | 98% | 1012.7 hPa | 0 mm | - | 69 W/m² | - |
| 1778076865 | 10° C | 98% | 1012.7 hPa | 0 mm | - | 67 W/m² | - |
| 1778076563 | 10° C | 98% | 1012.7 hPa | 0 mm | - | 56 W/m² | - |
| 1778076260 | 10° C | 98% | 1012.5 hPa | 0 mm | - | 43 W/m² | - |
| 1778075957 | 10° C | 98% | 1012.4 hPa | 0 mm | - | 55 W/m² | - |
| 1778075654 | 10° C | 98% | 1012.4 hPa | 0 mm | - | 49 W/m² | - |
| 1778075350 | 10° C | 98% | 1012.5 hPa | 0 mm | - | 44 W/m² | - |
| 1778075046 | 10° C | 98% | 1012.2 hPa | 0 mm | - | 40 W/m² | - |
| 1778074743 | 10° C | 98% | 1012.2 hPa | 0 mm | - | 47 W/m² | - |
| 1778074440 | 10° C | 98% | 1011.9 hPa | 0 mm | - | 24 W/m² | - |
| 1778074136 | 10° C | 98% | 1011.7 hPa | 0 mm | - | 30 W/m² | - |
| 1778073834 | 10° C | 98% | 1011.6 hPa | 0 mm | - | 24 W/m² | - |
| 1778073532 | 10° C | 98% | 1011.7 hPa | 0 mm | - | 31 W/m² | - |
| 1778073228 | 10° C | 98% | 1011.6 hPa | 0 mm | - | 53 W/m² | - |
| 1778072925 | 10° C | 99% | 1011.4 hPa | 0 mm | - | 75 W/m² | - |
| 1778072621 | 10° C | 99% | 1011.4 hPa | 0 mm | - | 81 W/m² | - |
| 1778072319 | 10° C | 99% | 1011.5 hPa | 0 mm | - | 76 W/m² | - |
| 1778072018 | 10° C | 99% | 1011.6 hPa | 0 mm | - | 55 W/m² | - |
* Rain latest hour (hover to see other rain measurements)
** Current wind speed in m/s (hover to see current wind gust speed)